FW1418 Weather Reports


Display with metric or nautical units.
time (UTC)temp
F
wind
direction
speed
MPH
gust
MPH
rain 1hr
in
rain 24hr
in
rain mn
in
humidity
%
barometer
mb
20260502231541 45 57 1.0 3.0 0.00 0.00 0.00 53 1015.6
20260502230039 45 57 1.0 5.0 0.00 0.00 0.00 52 1015.7
20260502224538 46 59 3.0 6.0 0.00 0.00 0.00 49 1015.8
20260502223040 46 59 1.0 4.0 0.00 0.00 0.00 51 1016.0
20260502221537 46 63 3.0 8.0 0.00 0.00 0.00 45 1016.1
20260502220035 47 94 1.0 7.0 0.00 0.00 0.00 44 1016.3
20260502214534 48 98 1.0 6.0 0.00 0.00 0.00 43 1016.3
20260502213033 48 63 3.0 12.0 0.00 0.00 0.00 40 1016.5
20260502211541 49 283 3.0 9.0 0.00 0.00 0.00 37 1016.7
20260502210037 49 35 2.0 8.0 0.00 0.00 0.00 39 1016.7
20260502204528 49 311 2.0 9.0 0.00 0.00 0.00 41 1017.0
20260502203026 48 31 3.0 12.0 0.00 0.00 0.00 39 1017.1
20260502201524 48 299 4.0 10.0 0.00 0.00 0.00 38 1017.3
20260502200025 47 327 5.0 13.0 0.00 0.00 0.00 38 1017.5
20260502194520 47 277 8.0 13.0 0.00 0.00 0.00 38 1017.9
20260502193018 47 234 4.0 15.0 0.00 0.00 0.00 40 1017.9
20260502191517 47 175 6.0 16.0 0.00 0.00 0.00 40 1018.1
20260502190015 45 305 6.0 13.0 0.00 0.00 0.00 40 1018.3
20260502184516 46 230 8.0 16.0 0.00 0.00 0.00 42 1018.4
20260502183031 46 305 3.0 15.0 0.00 0.00 0.00 43 1018.5
20260502181517 45 255 6.0 17.0 0.00 0.00 0.00 41 1018.5
20260502163010 45 350 4.0 14.0 0.00 0.00 0.00 41 1019.0
20260502161502 45 329 3.0 14.0 0.00 0.00 0.00 43 1019.2
20260502151603 42 291 6.0 12.0 0.00 0.00 0.00 53 1019.4
20260502123026 37 202 2.0 7.0 0.00 0.00 0.00 78 1019.9
20260502121525 36 246 2.0 8.0 0.00 0.00 0.00 80 1020.0
20260502114518 34 265 0.0 4.0 0.00 0.00 0.00 85 1019.9
20260502113014 32 243 1.0 3.0 0.00 0.00 0.00 88 1019.9
20260502111511 30 244 1.0 3.0 0.00 0.00 0.00 89 1019.8
20260502110012 29 243 1.0 3.0 0.00 0.00 0.00 91 1019.8
20260502104510 28 238 2.0 4.0 0.00 0.00 0.00 92 1019.7
20260502103011 27 237 2.0 4.0 0.00 0.00 0.00 92 1019.8
20260502101528 27 237 2.0 3.0 0.00 0.00 0.00 93 1019.8
20260502091505 28 237 2.0 3.0 0.00 0.00 0.00 92 1019.5
20260502080110 28 231 2.0 3.0 0.00 0.00 0.00 93 1019.2
20260502070114 29 229 2.0 4.0 0.00 0.00 0.00 93 1019.3
20260502064557 29 229 2.0 3.0 0.00 0.00 0.00 93 1019.4
20260502063057 29 228 2.0 3.0 0.00 0.00 0.00 93 1019.3
20260502061551 30 228 1.0 3.0 0.00 0.00 0.00 93 1019.4
20260502060048 30 228 2.0 3.0 0.00 0.00 0.00 93 1019.4
20260502054548 30 228 2.0 3.0 0.00 0.00 0.00 92 1019.4
20260502053047 30 228 1.0 3.0 0.00 0.00 0.00 93 1019.3
20260502051603 30 228 1.0 3.0 0.00 0.00 0.00 93 1019.4
20260502050043 30 227 2.0 3.0 0.00 0.00 0.00 92 1019.3
20260502044545 30 227 2.0 3.0 0.00 0.00 0.00 92 1019.1
20260502043040 30 227 1.0 3.0 0.00 0.00 0.00 91 1019.1
20260502041540 31 227 1.0 3.0 0.00 0.00 0.00 91 1019.1
20260502040045 31 227 1.0 2.0 0.00 0.00 0.00 90 1019.1
20260502034532 32 227 1.0 2.0 0.00 0.00 0.00 90 1019.1
20260502033030 33 227 1.0 4.0 0.00 0.00 0.00 88 1019.1
20260502031527 34 227 2.0 4.0 0.00 0.00 0.00 87 1019.2
20260502030026 34 219 1.0 3.0 0.00 0.00 0.00 86 1019.2
20260502024530 35 227 1.0 4.0 0.00 0.00 0.00 85 1019.2
20260502023026 35 225 1.0 4.0 0.00 0.00 0.00 85 1019.3
20260502021525 36 224 2.0 5.0 0.00 0.00 0.00 85 1019.4
20260502020024 36 228 2.0 6.0 0.00 0.00 0.00 85 1019.3
20260502014525 36 292 2.0 4.0 0.00 0.00 0.00 85 1019.2
20260502013023 36 286 2.0 4.0 0.00 0.00 0.00 84 1019.2
20260502011525 36 294 2.0 6.0 0.00 0.00 0.00 83 1019.1
20260502010020 37 290 3.0 8.0 0.00 0.00 0.00 82 1018.9
20260502004520 37 285 3.0 7.0 0.00 0.00 0.00 81 1018.9
20260502003019 37 301 5.0 11.0 0.00 0.00 0.00 80 1018.9
20260502001521 37 299 1.0 8.0 0.00 0.00 0.00 77 1018.9
20260502000016 37 277 6.0 11.0 0.00 0.00 0.00 78 1018.7
20260501234516 38 294 5.0 11.0 0.00 0.00 0.00 77 1018.6
20260501233021 38 294 6.0 12.0 0.00 0.00 0.00 77 1018.7